Regional Weather Roundup
Issued by NWS

Home | Current Version | Previous Version | Text Only | Print | Product List | Glossary On
Versions: 1 2 3 4 5 6 7 8 9 10 11 12 13 14 15 16 17 18 19 20 21 22 23 24 25 26 27 28 29 30 31 32 33 34 35 36 37 38 39 40 41 42 43 44 45 46 47 48 49
000
ASCA42 TJSJ 280010
RWRPR
PUERTO RICO/U.S. VIRGIN ISLANDS HOURLY WEATHER ROUNDUP
NATIONAL WEATHER SERVICE SAN JUAN PR
800 PM AST THU AUG 27 2015

PRZ001-004-280100-
PUERTO RICO

CITY           SKY/WX    TMP DP  RH WIND       PRES   REMARKS
SAN JUAN LMM   MOCLDY    81  75  83 E14       29.88R
AGUADILLA      LGT RAIN  79  73  83 E14G26    29.88R
$$

PRZ006-007-280100-
U.S. VIRGIN ISLANDS

CITY           SKY/WX    TMP DP  RH WIND       PRES   REMARKS
CHARLOTTE AMA  MOCLDY    82  75  78 E22G32    29.87R
CHRISTIANSTED  RAIN      77  75  94 NE32G48   29.72F FOG
$$

HOURLY WEATHER ROUNDUP FOR THE NEWS MEDIA

CITY           SKY/WX    TMP DP  RH WIND       PRES   REMARKS
ORLANDO        FAIR      78  72  81 E5        29.94S
NEW YORK       PTCLDY    75  52  44 NW15      30.07
NEWARK         PTCLDY    74  53  48 NW14G21   30.07R
CHICAGO        MOCLDY    69  52  54 E13       30.12F
HARTFORD       CLEAR     68  57  68 W3        30.01R
BOSTON         PTCLDY    75  52  44 W12       30.01R
DALLAS         PTSUNNY   91  61  36 SE13      29.98F HX  91
PHILADELPHIA   PTCLDY    76  51  41 N7        30.09R
LOS ANGELES    MOSUNNY   81  62  52 W12       29.88F
WASHINGTON DC  PTCLDY    73  54  51 N9        30.10S



USA.gov is the U.S. government's official web portal to all federal, state and local government web resources and services.